TimeMST,TemperatureF,Dew PointF,Humidity,Sea Level PressureIn,VisibilityMPH,Wind Direction,Wind SpeedMPH,Gust SpeedMPH,PrecipitationIn,Events,Conditions,WindDirDegrees,DateUTC
12:53 AM,18.0,5.0,57,29.97,10.0,ESE,13.8,-,N/A,,Clear,120,2013-02-20 07:53:00
1:53 AM,17.1,5.0,59,29.97,10.0,SE,11.5,-,N/A,,Clear,130,2013-02-20 08:53:00
2:53 AM,16.0,6.1,65,29.96,10.0,SE,11.5,-,N/A,,Clear,130,2013-02-20 09:53:00
3:53 AM,15.1,6.1,68,29.95,10.0,ESE,11.5,-,N/A,,Clear,120,2013-02-20 10:53:00
4:53 AM,15.1,6.1,68,29.96,10.0,ESE,8.1,-,N/A,,Clear,120,2013-02-20 11:53:00
5:53 AM,14.0,5.0,67,29.96,10.0,ESE,6.9,-,N/A,,Clear,120,2013-02-20 12:53:00
6:53 AM,14.0,5.0,67,29.97,10.0,East,4.6,-,N/A,,Clear,100,2013-02-20 13:53:00
7:53 AM,12.9,6.1,74,29.99,10.0,NNE,4.6,-,N/A,,Clear,20,2013-02-20 14:53:00
8:53 AM,17.1,7.0,65,29.99,10.0,NE,5.8,-,N/A,,Clear,50,2013-02-20 15:53:00
9:53 AM,19.9,8.1,60,29.98,10.0,ENE,5.8,-,N/A,,Clear,60,2013-02-20 16:53:00
10:53 AM,23.0,9.0,55,29.98,10.0,Variable,3.5,-,N/A,,Clear,0,2013-02-20 17:53:00
11:53 AM,24.1,9.0,53,29.98,10.0,NNE,5.8,-,N/A,,Partly Cloudy,20,2013-02-20 18:53:00
12:53 PM,28.0,10.9,49,29.96,10.0,North,4.6,-,N/A,,Clear,10,2013-02-20 19:53:00
1:53 PM,27.0,10.9,51,29.94,10.0,ENE,9.2,-,N/A,,Clear,70,2013-02-20 20:53:00
2:53 PM,28.9,10.9,47,29.94,10.0,NE,5.8,-,N/A,,Clear,40,2013-02-20 21:53:00
3:53 PM,28.9,10.9,47,29.94,10.0,North,9.2,-,N/A,,Clear,360,2013-02-20 22:53:00
4:53 PM,27.0,12.0,53,29.96,10.0,North,9.2,-,N/A,,Clear,360,2013-02-20 23:53:00
5:53 PM,25.0,12.0,58,29.98,10.0,North,6.9,-,N/A,,Overcast,360,2013-02-21 00:53:00
6:53 PM,25.0,12.0,58,29.99,10.0,North,8.1,-,N/A,,Overcast,360,2013-02-21 01:53:00
7:53 PM,25.0,12.0,58,30.00,10.0,North,5.8,-,N/A,,Overcast,360,2013-02-21 02:53:00
8:53 PM,25.0,12.0,58,30.00,10.0,North,6.9,-,N/A,,Overcast,360,2013-02-21 03:53:00
9:53 PM,25.0,12.9,60,30.00,10.0,NNW,4.6,-,N/A,,Overcast,330,2013-02-21 04:53:00
10:53 PM,24.1,12.9,62,30.01,10.0,NNW,9.2,-,N/A,,Overcast,330,2013-02-21 05:53:00
11:53 PM,24.1,14.0,65,30.01,10.0,North,5.8,-,N/A,,Overcast,350,2013-02-21 06:53:00